Home > Time Zones > World Clock > Weather > U.S.A. > Adak > Past weeks

Flag for U.S.A. Weather past 2 weeks in Adak, Alaska, U.S.A.

Now
52 °F

Overcast.


Feels Like: 49 °F
Forecast: 45 / 49 °F
Wind: 8 mph from Northeast

Location: Adak

Current Time: Jul 4, 2015 at 3:16:16 PM

Latest Report: Jul 4, 2015 at 2:36 PM


Visibility: 10 mi

Pressure: 29.54 "Hg

Humidity: 62%

Dew point: 39 °F

Location of AdakLocation

Historic Weather in Adak — Graph

°F

Adak temperature yesterday

Maximum temperature yesterday: 48 °F (at 10:16 AM)
Minimum temperature yesterday: 45 °F (at 12:36 AM)
Average temperature yesterday: 46 °F

Past Weeks' High & Low Weather Summary

 TemperatureHumidityPressure
High55 °F (Jun 29, 4:16 PM)87% (Jun 20, 9:16 AM)30.32 "Hg (Jun 20, 9:16 AM)
Low41 °F (Jun 27, 4:36 AM)55% (Jun 29, 4:16 PM)29.53 "Hg (Jul 3, 7:16 PM)
Average47 °F77%29.92 "Hg
* Reported Jun 19 2:16 PM — Jul 4 2:16 PM, Adak, Weather by CustomWeather, © 2015

Note: Actual official high and low records may vary slightly from our data, if they occured in-between our weather recording intervals... More about our weather records

Advertising

Adak weather history for previous 24 hours

 ConditionsComfort  
Time TempWeatherWind HumidityBarometerVisibility
2:16 PM
Sat, Jul 4
52 °FPartly sunny.6 mph62%29.55 "Hg10 mi
1:56 PM52 °FBroken clouds.3 mph58%29.55 "Hg10 mi
1:36 PM48 °FMostly cloudy.No wind71%29.55 "Hg10 mi
1:16 PM48 °FMore clouds than sun.3 mph66%29.55 "Hg10 mi
12:56 PM46 °FMostly cloudy.No wind76%29.56 "Hg10 mi
12:36 PM48 °FOvercast.3 mph71%29.56 "Hg10 mi
12:16 PM48 °FOvercast.5 mph71%29.56 "Hg10 mi
11:56 AM48 °FOvercast.3 mph71%29.56 "Hg10 mi
11:36 AM46 °FOvercast.3 mph76%29.56 "Hg10 mi
11:16 AM46 °FOvercast.3 mph76%29.57 "Hg10 mi
10:56 AM46 °FMore clouds than sun.3 mph76%29.57 "Hg10 mi
10:36 AM46 °FOvercast.3 mph76%29.57 "Hg10 mi
10:16 AM46 °FMostly cloudy.5 mph76%29.57 "Hg10 mi
9:56 AM46 °FMostly cloudy.7 mph76%29.57 "Hg10 mi
9:36 AM46 °FOvercast.6 mph82%29.57 "Hg10 mi
9:16 AM46 °FMore clouds than sun.3 mph76%29.57 "Hg4 mi
8:56 AM46 °FMostly cloudy.5 mph82%29.57 "Hg10 mi
8:36 AM46 °FMostly cloudy.3 mph82%29.57 "Hg10 mi
8:16 AM46 °FMore clouds than sun.5 mph82%29.57 "Hg10 mi
7:56 AM46 °FMostly cloudy.6 mph82%29.56 "Hg10 mi
7:36 AM45 °FBroken clouds.3 mph81%29.56 "Hg10 mi
7:16 AM45 °FMostly cloudy.7 mph81%29.56 "Hg10 mi
6:56 AM45 °FMostly cloudy.6 mph87%29.56 "Hg10 mi
6:36 AM45 °FOvercast.7 mph81%29.55 "Hg10 mi
6:16 AM45 °FMostly cloudy.7 mph81%29.55 "Hg10 mi
5:56 AM45 °FMostly cloudy.5 mph81%29.55 "Hg10 mi
5:36 AM45 °FMostly cloudy.5 mph81%29.55 "Hg10 mi
5:16 AM45 °FOvercast.6 mph81%29.55 "Hg10 mi
4:56 AM45 °FMostly cloudy.5 mph81%29.55 "Hg7 mi
4:36 AM45 °FOvercast.5 mph81%29.55 "Hg7 mi
4:16 AM45 °FOvercast.7 mph81%29.55 "Hg10 mi
3:56 AM46 °FMostly cloudy.6 mph76%29.55 "Hg10 mi
3:36 AM46 °FMostly cloudy.6 mph76%29.56 "Hg10 mi
3:16 AM46 °FMostly cloudy.6 mph76%29.56 "Hg10 mi
2:56 AM46 °FMostly cloudy.6 mph76%29.56 "Hg10 mi
2:36 AM46 °FMostly cloudy.3 mph76%29.55 "Hg10 mi
2:16 AM46 °FOvercast.3 mph76%29.55 "Hg10 mi
1:56 AM46 °FOvercast.5 mph76%29.55 "Hg10 mi
1:36 AM46 °FOvercast.3 mph76%29.56 "Hg10 mi
1:16 AM46 °FMostly cloudy.3 mph76%29.55 "Hg10 mi
12:56 AM46 °FMostly cloudy.6 mph76%29.56 "Hg10 mi
12:36 AM46 °FMostly cloudy.5 mph82%29.56 "Hg10 mi
12:16 AM46 °FOvercast.3 mph76%29.56 "Hg10 mi
11:56 PM
Fri, Jul 3
46 °FMostly cloudy.5 mph76%29.56 "Hg10 mi
11:36 PM46 °FMostly cloudy.5 mph76%29.55 "Hg10 mi
11:16 PM46 °FMostly cloudy.6 mph76%29.55 "Hg10 mi
10:56 PM46 °FOvercast.6 mph82%29.55 "Hg10 mi
10:36 PM46 °FOvercast.6 mph82%29.55 "Hg10 mi
10:16 PM48 °FMostly cloudy.6 mph76%29.54 "Hg10 mi
9:56 PM48 °FMore clouds than sun.No wind71%29.54 "Hg10 mi
9:36 PM48 °FMostly cloudy.3 mph71%29.54 "Hg10 mi
9:16 PM48 °FMostly cloudy.No wind76%29.54 "Hg10 mi
8:56 PM48 °FMostly cloudy.3 mph76%29.54 "Hg10 mi
8:36 PM48 °FOvercast.3 mph76%29.54 "Hg10 mi
8:16 PM48 °FOvercast.6 mph76%29.54 "Hg10 mi
7:56 PM48 °FOvercast.5 mph82%29.53 "Hg10 mi
7:36 PM46 °FOvercast.6 mph87%29.54 "Hg10 mi
7:16 PM46 °FOvercast.9 mph87%29.53 "Hg5 mi
6:36 PM48 °FMostly cloudy.9 mph82%29.54 "Hg10 mi
6:16 PM48 °FOvercast.10 mph82%29.54 "Hg10 mi
5:56 PM48 °FOvercast.8 mph82%29.54 "Hg10 mi
5:36 PM48 °FOvercast.7 mph82%29.54 "Hg10 mi
5:16 PM48 °FMostly cloudy.9 mph82%29.54 "Hg10 mi
4:56 PM48 °FOvercast.12 mph82%29.54 "Hg10 mi
4:36 PM48 °FMostly cloudy.10 mph82%29.54 "Hg10 mi
4:16 PM48 °FOvercast.9 mph82%29.55 "Hg10 mi
3:56 PM48 °FOvercast.9 mph82%29.55 "Hg10 mi
3:36 PM48 °FMostly cloudy.10 mph82%29.55 "Hg10 mi
3:16 PM48 °FMostly cloudy.12 mph82%29.56 "Hg10 mi
Weather by CustomWeather, © 2015

See weather overviewHow to use our weather pages